This is the latest recevied weather packets stored in our database for station/object DJ2DS-13. If no packets are shown the sender has not sent any weather packets the latest 10 day(s).
| Time | Temp. | Humidity | Pressure | Rain* | Wind** | Luminosity | Snow |
|---|---|---|---|---|---|---|---|
| 1777467749 | 15.56° C | 44% | 1028.8 hPa | 0 mm | - | 696 W/m² | - |
| 1777467446 | 15.56° C | 45% | 1028.8 hPa | 0 mm | - | 702 W/m² | - |
| 1777467145 | 15.56° C | 44% | 1028.9 hPa | 0 mm | - | 705 W/m² | - |
| 1777466844 | 15.56° C | 46% | 1028.9 hPa | 0 mm | - | 710 W/m² | - |
| 1777466544 | 15.56° C | 45% | 1028.8 hPa | 0 mm | - | 714 W/m² | - |
| 1777466244 | 15.56° C | 44% | 1028.7 hPa | 0 mm | - | 719 W/m² | - |
| 1777465944 | 15.56° C | 47% | 1028.8 hPa | 0 mm | - | 723 W/m² | - |
| 1777465645 | 15.56° C | 45% | 1028.7 hPa | 0 mm | - | 724 W/m² | - |
| 1777465345 | 15.56° C | 47% | 1028.9 hPa | 0 mm | - | 728 W/m² | - |
| 1777465044 | 15.56° C | 45% | 1028.9 hPa | 0 mm | - | 733 W/m² | - |
| 1777464746 | 15° C | 45% | 1029 hPa | 0 mm | - | 735 W/m² | - |
| 1777464443 | 15° C | 46% | 1029 hPa | 0 mm | - | 735 W/m² | - |
| 1777464142 | 15° C | 44% | 1028.9 hPa | 0 mm | - | 739 W/m² | - |
| 1777463842 | 15° C | 44% | 1029 hPa | 0 mm | - | 742 W/m² | - |
| 1777463542 | 15° C | 41% | 1029.1 hPa | 0 mm | - | 742 W/m² | - |
| 1777463243 | 15.56° C | 42% | 1029.1 hPa | 0 mm | - | 744 W/m² | - |
| 1777462943 | 15° C | 42% | 1029 hPa | 0 mm | - | 740 W/m² | - |
| 1777462643 | 15° C | 44% | 1029.1 hPa | 0 mm | - | 744 W/m² | - |
| 1777462342 | 15° C | 44% | 1029.1 hPa | 0 mm | - | 744 W/m² | - |
| 1777462043 | 15° C | 44% | 1029.1 hPa | 0 mm | - | 740 W/m² | - |
| 1777461743 | 15.56° C | 44% | 1029 hPa | 0 mm | - | 742 W/m² | - |
| 1777461442 | 15.56° C | 44% | 1029.1 hPa | 0 mm | - | 740 W/m² | - |
| 1777461142 | 15.56° C | 44% | 1029.1 hPa | 0 mm | - | 742 W/m² | - |
| 1777460844 | 15° C | 44% | 1029.1 hPa | 0 mm | - | 744 W/m² | - |
| 1777460542 | 15° C | 43% | 1029.2 hPa | 0 mm | - | 742 W/m² | - |
* Rain latest hour (hover to see other rain measurements)
** Current wind speed in m/s (hover to see current wind gust speed)